Year,Month,Day,Hour,Minute,Value (Times are PST for temperature in C)
2009,07,27,00,00,23.20
2009,07,27,00,01,23.20
2009,07,27,00,02,23.20
2009,07,27,00,03,23.20
2009,07,27,00,04,23.20
2009,07,27,00,05,23.20
2009,07,27,00,06,23.20
2009,07,27,00,07,23.10
2009,07,27,00,08,23.10
2009,07,27,00,09,23.10
2009,07,27,00,10,23.10
2009,07,27,00,11,23.10
2009,07,27,00,12,23.00
2009,07,27,00,13,23.00
2009,07,27,00,14,23.00
2009,07,27,00,15,23.00
2009,07,27,00,16,23.00
2009,07,27,00,17,23.00
2009,07,27,00,18,23.00
2009,07,27,00,19,23.00
2009,07,27,00,20,23.00
2009,07,27,00,21,23.00
2009,07,27,00,22,23.00
2009,07,27,00,23,23.00
2009,07,27,00,24,23.00
2009,07,27,00,25,23.00
2009,07,27,00,26,23.00
2009,07,27,00,27,23.00
2009,07,27,00,28,23.00
2009,07,27,00,29,23.00
2009,07,27,00,30,23.00
2009,07,27,00,31,23.00
2009,07,27,00,32,23.00
2009,07,27,00,33,23.00
2009,07,27,00,34,23.00
2009,07,27,00,35,23.00
2009,07,27,00,36,23.00
2009,07,27,00,37,22.90
2009,07,27,00,38,22.90
2009,07,27,00,39,22.90
2009,07,27,00,40,22.90
2009,07,27,00,41,22.90
2009,07,27,00,42,22.90
2009,07,27,00,43,22.90
2009,07,27,00,44,22.90
2009,07,27,00,45,22.90
2009,07,27,00,46,22.90
2009,07,27,00,47,22.90
2009,07,27,00,48,22.80
2009,07,27,00,49,22.80
2009,07,27,00,50,22.80
2009,07,27,00,51,22.80
2009,07,27,00,52,22.80
2009,07,27,00,53,22.80
2009,07,27,00,54,22.80
2009,07,27,00,55,22.80
2009,07,27,00,56,22.80
2009,07,27,00,57,22.80
2009,07,27,00,58,22.80
2009,07,27,00,59,22.80
2009,07,27,01,00,22.80
2009,07,27,01,01,22.80
2009,07,27,01,02,22.80
2009,07,27,01,03,22.80
2009,07,27,01,04,22.80
2009,07,27,01,05,22.70
2009,07,27,01,06,22.70
2009,07,27,01,07,22.70
2009,07,27,01,08,22.70
2009,07,27,01,09,22.70
2009,07,27,01,10,22.70
2009,07,27,01,11,22.70
2009,07,27,01,12,22.60
2009,07,27,01,13,22.60
2009,07,27,01,14,22.60
2009,07,27,01,15,22.60
2009,07,27,01,16,22.60
2009,07,27,01,17,22.60
2009,07,27,01,18,22.60
2009,07,27,01,19,22.60
2009,07,27,01,20,22.50
2009,07,27,01,21,22.50
2009,07,27,01,22,22.50
2009,07,27,01,23,22.40
2009,07,27,01,24,22.40
2009,07,27,01,25,22.40
2009,07,27,01,26,22.40
2009,07,27,01,27,22.30
2009,07,27,01,28,22.30
2009,07,27,01,29,22.30
2009,07,27,01,30,22.30
2009,07,27,01,31,22.30
2009,07,27,01,32,22.30
2009,07,27,01,33,22.20
2009,07,27,01,34,22.20
2009,07,27,01,35,22.20
2009,07,27,01,36,22.20
2009,07,27,01,37,22.20
2009,07,27,01,38,22.20
2009,07,27,01,39,22.20
2009,07,27,01,40,22.20
2009,07,27,01,41,22.20
2009,07,27,01,42,22.20
2009,07,27,01,43,22.20
2009,07,27,01,44,22.20
2009,07,27,01,45,22.20
2009,07,27,01,46,22.20
2009,07,27,01,47,22.20
2009,07,27,01,48,22.20
2009,07,27,01,49,22.20
2009,07,27,01,50,22.20
2009,07,27,01,51,22.20
2009,07,27,01,52,22.20
2009,07,27,01,53,22.20
2009,07,27,01,54,22.30
2009,07,27,01,55,22.30
2009,07,27,01,56,22.30
2009,07,27,01,57,22.30
2009,07,27,01,58,22.30
2009,07,27,01,59,22.40
2009,07,27,02,00,22.40
2009,07,27,02,01,22.40
2009,07,27,02,02,22.40
2009,07,27,02,03,22.50
2009,07,27,02,04,22.50
2009,07,27,02,05,22.60
2009,07,27,02,06,22.60
2009,07,27,02,07,22.60
2009,07,27,02,08,22.60
2009,07,27,02,09,22.70
2009,07,27,02,10,22.70
2009,07,27,02,11,22.70
2009,07,27,02,12,22.70
2009,07,27,02,13,22.70
2009,07,27,02,14,22.70
2009,07,27,02,15,22.70
2009,07,27,02,16,22.70
2009,07,27,02,17,22.70
2009,07,27,02,18,22.70
2009,07,27,02,19,22.70
2009,07,27,02,20,22.70
2009,07,27,02,21,22.70
2009,07,27,02,22,22.70
2009,07,27,02,23,22.70
2009,07,27,02,24,22.70
2009,07,27,02,25,22.70
2009,07,27,02,26,22.70
2009,07,27,02,27,22.70
2009,07,27,02,28,22.70
2009,07,27,02,29,22.70
2009,07,27,02,30,22.70
2009,07,27,02,31,22.70
2009,07,27,02,32,22.70
2009,07,27,02,33,22.70
2009,07,27,02,34,22.70
2009,07,27,02,35,22.70
2009,07,27,02,36,22.60
2009,07,27,02,37,22.60
2009,07,27,02,38,22.60
2009,07,27,02,39,22.60
2009,07,27,02,40,22.60
2009,07,27,02,41,22.50
2009,07,27,02,42,22.50
2009,07,27,02,43,22.50
2009,07,27,02,44,22.40
2009,07,27,02,45,22.40
2009,07,27,02,46,22.40
2009,07,27,02,47,22.40
2009,07,27,02,48,22.40
2009,07,27,02,49,22.30
2009,07,27,02,50,22.30
2009,07,27,02,51,22.30
2009,07,27,02,52,22.30
2009,07,27,02,53,22.20
2009,07,27,02,54,22.20
2009,07,27,02,55,22.20
2009,07,27,02,56,22.20
2009,07,27,02,57,22.10
2009,07,27,02,58,22.10
2009,07,27,02,59,22.10
2009,07,27,03,00,22.10
2009,07,27,03,01,22.10
2009,07,27,03,02,22.00
2009,07,27,03,03,22.00
2009,07,27,03,04,22.00
2009,07,27,03,05,21.90
2009,07,27,03,06,21.90
2009,07,27,03,07,21.90
2009,07,27,03,08,21.90
2009,07,27,03,09,21.90
2009,07,27,03,10,21.80
2009,07,27,03,11,21.80
2009,07,27,03,12,21.80
2009,07,27,03,13,21.80
2009,07,27,03,14,21.80
2009,07,27,03,15,21.80
2009,07,27,03,16,21.80
2009,07,27,03,17,21.80
2009,07,27,03,18,21.70
2009,07,27,03,19,21.70
2009,07,27,03,20,21.70
2009,07,27,03,21,21.70
2009,07,27,03,22,21.70
2009,07,27,03,23,21.70
2009,07,27,03,24,21.70
2009,07,27,03,25,21.70
2009,07,27,03,26,21.60
2009,07,27,03,27,21.60
2009,07,27,03,28,21.60
2009,07,27,03,29,21.60
2009,07,27,03,30,21.60
2009,07,27,03,31,21.50
2009,07,27,03,32,21.50
2009,07,27,03,33,21.40
2009,07,27,03,34,21.40
2009,07,27,03,35,21.40
2009,07,27,03,36,21.30
2009,07,27,03,37,21.30
2009,07,27,03,38,21.30
2009,07,27,03,39,21.30
2009,07,27,03,40,21.30
2009,07,27,03,41,21.30
2009,07,27,03,42,21.20
2009,07,27,03,43,21.20
2009,07,27,03,44,21.20
2009,07,27,03,45,21.20
2009,07,27,03,46,21.20
2009,07,27,03,47,21.10
2009,07,27,03,48,21.10
2009,07,27,03,49,21.10
2009,07,27,03,50,21.10
2009,07,27,03,51,21.10
2009,07,27,03,52,21.10
2009,07,27,03,53,21.00
2009,07,27,03,54,21.00
2009,07,27,03,55,21.00
2009,07,27,03,56,21.00
2009,07,27,03,57,21.00
2009,07,27,03,58,21.00
2009,07,27,03,59,21.00
2009,07,27,04,00,21.00
2009,07,27,04,01,21.00
2009,07,27,04,02,21.00
2009,07,27,04,03,21.00
2009,07,27,04,04,21.00
2009,07,27,04,05,20.90
2009,07,27,04,06,20.90
2009,07,27,04,07,20.90
2009,07,27,04,08,20.90
2009,07,27,04,09,20.90
2009,07,27,04,10,20.90
2009,07,27,04,11,20.90
2009,07,27,04,12,20.90
2009,07,27,04,13,20.90
2009,07,27,04,14,20.90
2009,07,27,04,15,20.90
2009,07,27,04,16,20.90
2009,07,27,04,17,20.90
2009,07,27,04,18,20.90
2009,07,27,04,19,20.90
2009,07,27,04,20,20.90
2009,07,27,04,21,20.90
2009,07,27,04,22,20.90
2009,07,27,04,23,20.90
2009,07,27,04,24,20.90
2009,07,27,04,25,20.90
2009,07,27,04,26,20.90
2009,07,27,04,27,20.90
2009,07,27,04,28,20.90
2009,07,27,04,29,20.90
2009,07,27,04,30,20.90
2009,07,27,04,31,20.80
2009,07,27,04,32,20.80
2009,07,27,04,33,20.80
2009,07,27,04,34,20.80
2009,07,27,04,35,20.80
2009,07,27,04,36,20.80
2009,07,27,04,37,20.80
2009,07,27,04,38,20.80
2009,07,27,04,39,20.80
2009,07,27,04,40,20.70
2009,07,27,04,41,20.70
2009,07,27,04,42,20.70
2009,07,27,04,43,20.70
2009,07,27,04,44,20.70
2009,07,27,04,45,20.70
2009,07,27,04,46,20.70
2009,07,27,04,47,20.70
2009,07,27,04,48,20.70
2009,07,27,04,49,20.70
2009,07,27,04,50,20.70
2009,07,27,04,51,20.60
2009,07,27,04,52,20.60
2009,07,27,04,53,20.60
2009,07,27,04,54,20.60
2009,07,27,04,55,20.60
2009,07,27,04,56,20.50
2009,07,27,04,57,20.50
2009,07,27,04,58,20.50
2009,07,27,04,59,20.40
2009,07,27,05,00,20.40
2009,07,27,05,01,20.40
2009,07,27,05,02,20.40
2009,07,27,05,03,20.40
2009,07,27,05,04,20.30
2009,07,27,05,05,20.30
2009,07,27,05,06,20.30
2009,07,27,05,07,20.30
2009,07,27,05,08,20.30
2009,07,27,05,09,20.30
2009,07,27,05,10,20.30
2009,07,27,05,11,20.20
2009,07,27,05,12,20.20
2009,07,27,05,13,20.20
2009,07,27,05,14,20.20
2009,07,27,05,15,20.20
2009,07,27,05,16,20.20
2009,07,27,05,17,20.20
2009,07,27,05,18,20.20
2009,07,27,05,19,20.10
2009,07,27,05,20,20.10
2009,07,27,05,21,20.10
2009,07,27,05,22,20.10
2009,07,27,05,23,20.10
2009,07,27,05,24,20.00
2009,07,27,05,25,20.00
2009,07,27,05,26,20.00
2009,07,27,05,27,19.90
2009,07,27,05,28,19.90
2009,07,27,05,29,19.90
2009,07,27,05,30,19.90
2009,07,27,05,31,19.90
2009,07,27,05,32,19.90
2009,07,27,05,33,19.90
2009,07,27,05,34,19.80
2009,07,27,05,35,19.80
2009,07,27,05,36,19.80
2009,07,27,05,37,19.80
2009,07,27,05,38,19.80
2009,07,27,05,39,19.80
2009,07,27,05,40,19.80
2009,07,27,05,41,19.80
2009,07,27,05,42,19.70
2009,07,27,05,43,19.70
2009,07,27,05,44,19.70
2009,07,27,05,45,19.70
2009,07,27,05,46,19.70
2009,07,27,05,47,19.70
2009,07,27,05,48,19.70
2009,07,27,05,49,19.70
2009,07,27,05,50,19.70
2009,07,27,05,51,19.70
2009,07,27,05,52,19.60
2009,07,27,05,53,19.60
2009,07,27,05,54,19.60
2009,07,27,05,55,19.60
2009,07,27,05,56,19.60
2009,07,27,05,57,19.60
2009,07,27,05,58,19.60
2009,07,27,05,59,19.60
2009,07,27,06,00,19.60
2009,07,27,06,01,19.50
2009,07,27,06,02,19.50
2009,07,27,06,03,19.50
2009,07,27,06,04,19.50
2009,07,27,06,05,19.40
2009,07,27,06,06,19.40
2009,07,27,06,07,19.40
2009,07,27,06,08,19.40
2009,07,27,06,09,19.40
2009,07,27,06,10,19.40
2009,07,27,06,11,19.40
2009,07,27,06,12,19.40
2009,07,27,06,13,19.40
2009,07,27,06,14,19.40
2009,07,27,06,15,19.40
2009,07,27,06,16,19.30
2009,07,27,06,17,19.30
2009,07,27,06,18,19.30
2009,07,27,06,19,19.30
2009,07,27,06,20,19.30
2009,07,27,06,21,19.30
2009,07,27,06,22,19.30
2009,07,27,06,23,19.30
2009,07,27,06,24,19.30
2009,07,27,06,25,19.30
2009,07,27,06,26,19.30
2009,07,27,06,27,19.30
2009,07,27,06,28,19.30
2009,07,27,06,29,19.30
2009,07,27,06,30,19.30
2009,07,27,06,31,19.40
2009,07,27,06,32,19.40
2009,07,27,06,33,19.40
2009,07,27,06,34,19.40
2009,07,27,06,35,19.40
2009,07,27,06,36,19.40
2009,07,27,06,37,19.40
2009,07,27,06,38,19.40
2009,07,27,06,39,19.50
2009,07,27,06,40,19.50
2009,07,27,06,41,19.50
2009,07,27,06,42,19.60
2009,07,27,06,43,19.60
2009,07,27,06,44,19.70
2009,07,27,06,45,19.70
2009,07,27,06,46,19.70
2009,07,27,06,47,19.80
2009,07,27,06,48,19.80
2009,07,27,06,49,19.80
2009,07,27,06,50,19.90
2009,07,27,06,51,19.90
2009,07,27,06,52,20.00
2009,07,27,06,53,20.00
2009,07,27,06,54,20.00
2009,07,27,06,55,20.10
2009,07,27,06,56,20.10
2009,07,27,06,57,20.20
2009,07,27,06,58,20.20
2009,07,27,06,59,20.20
2009,07,27,07,00,20.20
2009,07,27,07,01,20.30
2009,07,27,07,02,20.30
2009,07,27,07,03,20.30
2009,07,27,07,04,20.40
2009,07,27,07,05,20.40
2009,07,27,07,06,20.40
2009,07,27,07,07,20.50
2009,07,27,07,08,20.50
2009,07,27,07,09,20.60
2009,07,27,07,10,20.60
2009,07,27,07,11,20.70
2009,07,27,07,12,20.70
2009,07,27,07,13,20.70
2009,07,27,07,14,20.70
2009,07,27,07,15,20.80
2009,07,27,07,16,20.80
2009,07,27,07,17,20.80
2009,07,27,07,18,20.80
2009,07,27,07,19,20.90
2009,07,27,07,20,20.90
2009,07,27,07,21,20.90
2009,07,27,07,22,21.00
2009,07,27,07,23,21.00
2009,07,27,07,24,21.10
2009,07,27,07,25,21.10
2009,07,27,07,26,21.10
2009,07,27,07,27,21.10
2009,07,27,07,28,21.10
2009,07,27,07,29,21.20
2009,07,27,07,30,21.20
2009,07,27,07,31,21.20
2009,07,27,07,32,21.20
2009,07,27,07,33,21.20
2009,07,27,07,34,21.20
2009,07,27,07,35,21.20
2009,07,27,07,36,21.20
2009,07,27,07,37,21.20
2009,07,27,07,38,21.20
2009,07,27,07,39,21.20
2009,07,27,07,40,21.30
2009,07,27,07,41,21.30
2009,07,27,07,42,21.30
2009,07,27,07,43,21.30
2009,07,27,07,44,21.30
2009,07,27,07,45,21.30
2009,07,27,07,46,21.30
2009,07,27,07,47,21.30
2009,07,27,07,48,21.30
2009,07,27,07,49,21.30
2009,07,27,07,50,21.30
2009,07,27,07,51,21.30
2009,07,27,07,52,21.30
2009,07,27,07,53,21.30
2009,07,27,07,54,21.30
2009,07,27,07,55,21.30
2009,07,27,07,56,21.30
2009,07,27,07,57,21.30
2009,07,27,07,58,21.40
2009,07,27,07,59,21.40
2009,07,27,08,00,21.40
2009,07,27,08,01,21.40
2009,07,27,08,02,21.50
2009,07,27,08,03,21.50
2009,07,27,08,04,21.60
2009,07,27,08,05,21.60
2009,07,27,08,06,21.70
2009,07,27,08,07,21.70
2009,07,27,08,08,21.70
2009,07,27,08,09,21.70
2009,07,27,08,10,21.70
2009,07,27,08,11,21.70
2009,07,27,08,12,21.80
2009,07,27,08,13,21.80
2009,07,27,08,14,21.80
2009,07,27,08,15,21.80
2009,07,27,08,16,21.80
2009,07,27,08,17,21.80
2009,07,27,08,18,21.80
2009,07,27,08,19,21.80
2009,07,27,08,20,21.80
2009,07,27,08,21,21.80
2009,07,27,08,22,21.80
2009,07,27,08,23,21.80
2009,07,27,08,24,21.90
2009,07,27,08,25,21.90
2009,07,27,08,26,21.90
2009,07,27,08,27,21.90
2009,07,27,08,28,21.90
2009,07,27,08,29,21.90
2009,07,27,08,30,21.90
2009,07,27,08,31,21.90
2009,07,27,08,32,21.90
2009,07,27,08,33,21.90
2009,07,27,08,34,21.90
2009,07,27,08,35,21.80
2009,07,27,08,36,21.80
2009,07,27,08,37,21.80
2009,07,27,08,38,21.80
2009,07,27,08,39,21.70
2009,07,27,08,40,21.60
2009,07,27,08,41,21.60
2009,07,27,08,42,21.60
2009,07,27,08,43,21.60
2009,07,27,08,44,21.60
2009,07,27,08,45,21.60
2009,07,27,08,46,21.60
2009,07,27,08,47,21.70
2009,07,27,08,48,21.70
2009,07,27,08,49,21.80
2009,07,27,08,50,21.80
2009,07,27,08,51,21.80
2009,07,27,08,52,21.90
2009,07,27,08,53,21.80
2009,07,27,08,54,21.80
2009,07,27,08,55,21.80
2009,07,27,08,56,21.80
2009,07,27,08,57,21.80
2009,07,27,08,58,21.80
2009,07,27,08,59,21.80
2009,07,27,09,00,21.80
2009,07,27,09,01,21.80
2009,07,27,09,02,21.80
2009,07,27,09,03,21.80
2009,07,27,09,04,21.80
2009,07,27,09,05,21.90
2009,07,27,09,06,21.90
2009,07,27,09,07,21.90
2009,07,27,09,08,21.90
2009,07,27,09,09,21.90
2009,07,27,09,10,21.90
2009,07,27,09,11,22.00
2009,07,27,09,12,22.00
2009,07,27,09,13,22.10
2009,07,27,09,14,22.10
2009,07,27,09,15,22.10
2009,07,27,09,16,22.20
2009,07,27,09,17,22.20
2009,07,27,09,18,22.30
2009,07,27,09,19,22.30
2009,07,27,09,20,22.40
2009,07,27,09,21,22.50
2009,07,27,09,22,22.50
2009,07,27,09,23,22.60
2009,07,27,09,24,22.60
2009,07,27,09,25,22.70
2009,07,27,09,26,22.70
2009,07,27,09,27,22.80
2009,07,27,09,28,22.90
2009,07,27,09,29,23.00
2009,07,27,09,30,23.20
2009,07,27,09,31,23.30
2009,07,27,09,32,23.30
2009,07,27,09,33,23.40
2009,07,27,09,34,23.40
2009,07,27,09,35,23.40
2009,07,27,09,36,23.40
2009,07,27,09,37,23.40
2009,07,27,09,38,23.50
2009,07,27,09,39,23.60
2009,07,27,09,40,23.70
2009,07,27,09,41,23.80
2009,07,27,09,42,23.90
2009,07,27,09,43,23.90
2009,07,27,09,44,24.00
2009,07,27,09,45,24.00
2009,07,27,09,46,24.10
2009,07,27,09,47,24.10
2009,07,27,09,48,24.10
2009,07,27,09,49,24.20
2009,07,27,09,50,24.20
2009,07,27,09,51,24.20
2009,07,27,09,52,24.20
2009,07,27,09,53,24.30
2009,07,27,09,54,24.30
2009,07,27,09,55,24.30
2009,07,27,09,56,24.30
2009,07,27,09,57,24.30
2009,07,27,09,58,24.20
2009,07,27,09,59,24.20
2009,07,27,10,00,24.20
2009,07,27,10,01,24.20
2009,07,27,10,02,24.20
2009,07,27,10,03,24.20
2009,07,27,10,04,24.10
2009,07,27,10,05,24.10
2009,07,27,10,06,24.10
2009,07,27,10,07,24.10
2009,07,27,10,08,24.00
2009,07,27,10,09,24.00
2009,07,27,10,10,24.00
2009,07,27,10,11,24.10
2009,07,27,10,12,24.10
2009,07,27,10,13,24.20
2009,07,27,10,14,24.20
2009,07,27,10,15,24.30
2009,07,27,10,16,24.30
2009,07,27,10,17,24.30
2009,07,27,10,18,24.30
2009,07,27,10,19,24.30
2009,07,27,10,20,24.30
2009,07,27,10,21,24.40
2009,07,27,10,22,24.50
2009,07,27,10,23,24.60
2009,07,27,10,24,24.60
2009,07,27,10,25,24.70
2009,07,27,10,26,24.70
2009,07,27,10,27,24.70
2009,07,27,10,28,24.70
2009,07,27,10,29,24.80
2009,07,27,10,30,24.80
2009,07,27,10,31,24.90
2009,07,27,10,32,25.00
2009,07,27,10,33,25.10
2009,07,27,10,34,25.20
2009,07,27,10,35,25.20
2009,07,27,10,36,25.20
2009,07,27,10,37,25.20
2009,07,27,10,38,25.30
2009,07,27,10,39,25.30
2009,07,27,10,40,25.30
2009,07,27,10,41,25.20
2009,07,27,10,42,25.20
2009,07,27,10,43,25.20
2009,07,27,10,44,25.10
2009,07,27,10,45,25.00
2009,07,27,10,46,24.90
2009,07,27,10,47,25.00
2009,07,27,10,48,25.00
2009,07,27,10,49,25.10
2009,07,27,10,50,25.10
2009,07,27,10,51,25.10
2009,07,27,10,52,25.10
2009,07,27,10,53,25.10
2009,07,27,10,54,25.00
2009,07,27,10,55,24.90
2009,07,27,10,56,24.80
2009,07,27,10,57,24.80
2009,07,27,10,58,24.90
2009,07,27,10,59,24.90
2009,07,27,11,00,24.90
2009,07,27,11,01,24.80
2009,07,27,11,02,24.80
2009,07,27,11,03,24.80
2009,07,27,11,04,24.80
2009,07,27,11,05,24.80
2009,07,27,11,06,24.90
2009,07,27,11,07,24.90
2009,07,27,11,08,24.90
2009,07,27,11,09,24.90
2009,07,27,11,10,25.00
2009,07,27,11,11,25.10
2009,07,27,11,12,25.10
2009,07,27,11,13,25.10
2009,07,27,11,14,25.20
2009,07,27,11,15,25.20
2009,07,27,11,16,25.30
2009,07,27,11,17,25.40
2009,07,27,11,18,25.40
2009,07,27,11,19,25.40
2009,07,27,11,20,25.40
2009,07,27,11,21,25.50
2009,07,27,11,22,25.40
2009,07,27,11,23,25.30
2009,07,27,11,24,25.20
2009,07,27,11,25,25.20
2009,07,27,11,26,25.20
2009,07,27,11,27,25.20
2009,07,27,11,28,25.30
2009,07,27,11,29,25.40
2009,07,27,11,30,25.50
2009,07,27,11,31,25.60
2009,07,27,11,32,25.70
2009,07,27,11,33,25.70
2009,07,27,11,34,25.80
2009,07,27,11,35,25.90
2009,07,27,11,36,25.90
2009,07,27,11,37,25.90
2009,07,27,11,38,25.90
2009,07,27,11,39,25.90
2009,07,27,11,40,25.90
2009,07,27,11,41,25.90
2009,07,27,11,42,26.00
2009,07,27,11,43,26.10
2009,07,27,11,44,26.20
2009,07,27,11,45,26.20
2009,07,27,11,46,26.20
2009,07,27,11,47,26.20
2009,07,27,11,48,26.20
2009,07,27,11,49,26.20
2009,07,27,11,50,26.30
2009,07,27,11,51,26.30
2009,07,27,11,52,26.40
2009,07,27,11,53,26.40
2009,07,27,11,54,26.40
2009,07,27,11,55,26.40
2009,07,27,11,56,26.40
2009,07,27,11,57,26.30
2009,07,27,11,58,26.40
2009,07,27,11,59,26.40
2009,07,27,12,00,26.50
2009,07,27,12,01,26.50
2009,07,27,12,02,26.60
2009,07,27,12,03,26.70
2009,07,27,12,04,26.80
2009,07,27,12,05,26.80
2009,07,27,12,06,26.90
2009,07,27,12,07,27.00
2009,07,27,12,08,27.10
2009,07,27,12,09,27.10
2009,07,27,12,10,27.00
2009,07,27,12,11,26.90
2009,07,27,12,12,26.90
2009,07,27,12,13,26.90
2009,07,27,12,14,26.80
2009,07,27,12,15,26.80
2009,07,27,12,16,26.70
2009,07,27,12,17,26.70
2009,07,27,12,18,26.70
2009,07,27,12,19,26.70
2009,07,27,12,20,26.70
2009,07,27,12,21,26.60
2009,07,27,12,22,26.60
2009,07,27,12,23,26.60
2009,07,27,12,24,26.60
2009,07,27,12,25,26.60
2009,07,27,12,26,26.60
2009,07,27,12,27,26.60
2009,07,27,12,28,26.60
2009,07,27,12,29,26.60
2009,07,27,12,30,26.50
2009,07,27,12,31,26.50
2009,07,27,12,32,26.50
2009,07,27,12,33,26.60
2009,07,27,12,34,26.70
2009,07,27,12,35,26.70
2009,07,27,12,36,26.80
2009,07,27,12,37,26.80
2009,07,27,12,38,26.90
2009,07,27,12,39,27.10
2009,07,27,12,40,27.10
2009,07,27,12,41,27.20
2009,07,27,12,42,27.40
2009,07,27,12,43,27.50
2009,07,27,12,44,27.60
2009,07,27,12,45,27.50
2009,07,27,12,46,27.50
2009,07,27,12,47,27.40
2009,07,27,12,48,27.40
2009,07,27,12,49,27.50
2009,07,27,12,50,27.50
2009,07,27,12,51,27.60
2009,07,27,12,52,27.70
2009,07,27,12,53,27.70
2009,07,27,12,54,27.80
2009,07,27,12,55,27.80
2009,07,27,12,56,27.80
2009,07,27,12,57,27.90
2009,07,27,12,58,28.00
2009,07,27,12,59,28.00
2009,07,27,13,00,27.90
2009,07,27,13,01,27.90
2009,07,27,13,02,27.80
2009,07,27,13,03,27.80
2009,07,27,13,04,27.80
2009,07,27,13,05,27.70
2009,07,27,13,06,27.70
2009,07,27,13,07,27.70
2009,07,27,13,08,27.80
2009,07,27,13,09,27.90
2009,07,27,13,10,27.90
2009,07,27,13,11,28.00
2009,07,27,13,12,28.10
2009,07,27,13,13,28.10
2009,07,27,13,14,28.10
2009,07,27,13,15,28.20
2009,07,27,13,16,28.30
2009,07,27,13,17,28.30
2009,07,27,13,18,28.40
2009,07,27,13,19,28.50
2009,07,27,13,20,28.50
2009,07,27,13,21,28.60
2009,07,27,13,22,28.60
2009,07,27,13,23,28.50
2009,07,27,13,24,28.40
2009,07,27,13,25,28.40
2009,07,27,13,26,28.40
2009,07,27,13,27,28.30
2009,07,27,13,28,28.30
2009,07,27,13,29,28.20
2009,07,27,13,30,28.20
2009,07,27,13,31,28.20
2009,07,27,13,32,28.20
2009,07,27,13,33,28.20
2009,07,27,13,34,28.30
2009,07,27,13,35,28.20
2009,07,27,13,36,28.20
2009,07,27,13,37,28.20
2009,07,27,13,38,28.30
2009,07,27,13,39,28.30
2009,07,27,13,40,28.40
2009,07,27,13,41,28.30
2009,07,27,13,42,28.30
2009,07,27,13,43,28.40
2009,07,27,13,44,28.40
2009,07,27,13,45,28.40
2009,07,27,13,46,28.40
2009,07,27,13,47,28.50
2009,07,27,13,48,28.60
2009,07,27,13,49,28.60
2009,07,27,13,50,28.70
2009,07,27,13,51,28.70
2009,07,27,13,52,28.80
2009,07,27,13,53,28.80
2009,07,27,13,54,28.90
2009,07,27,13,55,28.90
2009,07,27,13,56,28.80
2009,07,27,13,57,28.80
2009,07,27,13,58,28.80
2009,07,27,13,59,28.80
2009,07,27,14,00,28.80
2009,07,27,14,01,28.80
2009,07,27,14,02,28.80
2009,07,27,14,03,28.70
2009,07,27,14,04,28.70
2009,07,27,14,05,28.70
2009,07,27,14,06,28.80
2009,07,27,14,07,28.80
2009,07,27,14,08,28.80
2009,07,27,14,09,28.90
2009,07,27,14,10,29.00
2009,07,27,14,11,29.00
2009,07,27,14,12,29.00
2009,07,27,14,13,29.00
2009,07,27,14,14,28.90
2009,07,27,14,15,28.90
2009,07,27,14,16,28.90
2009,07,27,14,17,28.90
2009,07,27,14,18,28.90
2009,07,27,14,19,28.90
2009,07,27,14,20,28.90
2009,07,27,14,21,28.90
2009,07,27,14,22,29.00
2009,07,27,14,23,29.00
2009,07,27,14,24,29.10
2009,07,27,14,25,29.10
2009,07,27,14,26,29.10
2009,07,27,14,27,29.10
2009,07,27,14,28,29.20
2009,07,27,14,29,29.30
2009,07,27,14,30,29.40
2009,07,27,14,31,29.50
2009,07,27,14,32,29.50
2009,07,27,14,33,29.40
2009,07,27,14,34,29.50
2009,07,27,14,35,29.60
2009,07,27,14,36,29.60
2009,07,27,14,37,29.70
2009,07,27,14,38,29.70
2009,07,27,14,39,29.70
2009,07,27,14,40,29.70
2009,07,27,14,41,29.70
2009,07,27,14,42,29.70
2009,07,27,14,43,29.70
2009,07,27,14,44,29.70
2009,07,27,14,45,29.70
2009,07,27,14,46,29.80
2009,07,27,14,47,29.80
2009,07,27,14,48,29.90
2009,07,27,14,49,30.00
2009,07,27,14,50,30.10
2009,07,27,14,51,30.20
2009,07,27,14,52,30.30
2009,07,27,14,53,30.30
2009,07,27,14,54,30.30
2009,07,27,14,55,30.30
2009,07,27,14,56,30.30
2009,07,27,14,57,30.30
2009,07,27,14,58,30.30
2009,07,27,14,59,30.30
2009,07,27,15,00,30.20
2009,07,27,15,01,30.20
2009,07,27,15,02,30.00
2009,07,27,15,03,30.00
2009,07,27,15,04,30.00
2009,07,27,15,05,30.00
2009,07,27,15,06,30.10
2009,07,27,15,07,30.10
2009,07,27,15,08,30.20
2009,07,27,15,09,30.20
2009,07,27,15,10,30.30
2009,07,27,15,11,30.40
2009,07,27,15,12,30.40
2009,07,27,15,13,30.40
2009,07,27,15,14,30.40
2009,07,27,15,15,30.40
2009,07,27,15,16,30.40
2009,07,27,15,17,30.50
2009,07,27,15,18,30.50
2009,07,27,15,19,30.60
2009,07,27,15,20,30.60
2009,07,27,15,21,30.60
2009,07,27,15,22,30.60
2009,07,27,15,23,30.70
2009,07,27,15,24,30.80
2009,07,27,15,25,30.80
2009,07,27,15,26,30.80
2009,07,27,15,27,30.70
2009,07,27,15,28,30.70
2009,07,27,15,29,30.70
2009,07,27,15,30,30.80
2009,07,27,15,31,30.80
2009,07,27,15,32,30.80
2009,07,27,15,33,30.90
2009,07,27,15,34,31.00
2009,07,27,15,35,31.00
2009,07,27,15,36,31.10
2009,07,27,15,37,31.10
2009,07,27,15,38,31.10
2009,07,27,15,39,31.10
2009,07,27,15,40,31.20
2009,07,27,15,41,31.20
2009,07,27,15,42,31.20
2009,07,27,15,43,31.30
2009,07,27,15,44,31.30
2009,07,27,15,45,31.30
2009,07,27,15,46,31.30
2009,07,27,15,47,31.30
2009,07,27,15,48,31.30
2009,07,27,15,49,31.30
2009,07,27,15,50,31.30
2009,07,27,15,51,31.30
2009,07,27,15,52,31.20
2009,07,27,15,53,31.20
2009,07,27,15,54,31.30
2009,07,27,15,55,31.30
2009,07,27,15,56,31.40
2009,07,27,15,57,31.40
2009,07,27,15,58,31.50
2009,07,27,15,59,31.60
2009,07,27,16,00,31.60
2009,07,27,16,01,31.60
2009,07,27,16,02,31.60
2009,07,27,16,03,31.50
2009,07,27,16,04,31.50
2009,07,27,16,05,31.60
2009,07,27,16,06,31.60
2009,07,27,16,07,31.60
2009,07,27,16,08,31.60
2009,07,27,16,09,31.60
2009,07,27,16,10,31.60
2009,07,27,16,11,31.60
2009,07,27,16,12,31.60
2009,07,27,16,13,31.60
2009,07,27,16,14,31.60
2009,07,27,16,15,31.70
2009,07,27,16,16,31.70
2009,07,27,16,17,31.70
2009,07,27,16,18,31.70
2009,07,27,16,19,31.80
2009,07,27,16,20,31.80
2009,07,27,16,21,31.80
2009,07,27,16,22,31.80
2009,07,27,16,23,31.80
2009,07,27,16,24,31.70
2009,07,27,16,25,31.70
2009,07,27,16,26,31.70
2009,07,27,16,27,31.70
2009,07,27,16,28,31.70
2009,07,27,16,29,31.70
2009,07,27,16,30,31.70
2009,07,27,16,31,31.70
2009,07,27,16,32,31.60
2009,07,27,16,33,31.60
2009,07,27,16,34,31.60
2009,07,27,16,35,31.50
2009,07,27,16,36,31.50
2009,07,27,16,37,31.50
2009,07,27,16,38,31.50
2009,07,27,16,39,31.50
2009,07,27,16,40,31.60
2009,07,27,16,41,31.60
2009,07,27,16,42,31.70
2009,07,27,16,43,31.70
2009,07,27,16,44,31.70
2009,07,27,16,45,31.70
2009,07,27,16,46,31.70
2009,07,27,16,47,31.70
2009,07,27,16,48,31.60
2009,07,27,16,49,31.60
2009,07,27,16,50,31.70
2009,07,27,16,51,31.70
2009,07,27,16,52,31.70
2009,07,27,16,53,31.80
2009,07,27,16,54,31.80
2009,07,27,16,55,31.90
2009,07,27,16,56,31.90
2009,07,27,16,57,31.80
2009,07,27,16,58,31.80
2009,07,27,16,59,31.70
2009,07,27,17,00,31.70
2009,07,27,17,01,31.70
2009,07,27,17,02,31.70
2009,07,27,17,03,31.70
2009,07,27,17,04,31.70
2009,07,27,17,05,31.70
2009,07,27,17,06,31.70
2009,07,27,17,07,31.70
2009,07,27,17,08,31.70
2009,07,27,17,09,31.70
2009,07,27,17,10,31.70
2009,07,27,17,11,31.70
2009,07,27,17,12,31.80
2009,07,27,17,13,31.80
2009,07,27,17,14,31.80
2009,07,27,17,15,31.80
2009,07,27,17,16,31.90
2009,07,27,17,17,31.90
2009,07,27,17,18,31.90
2009,07,27,17,19,31.90